SCP
0 0 0 0 0 0 0 0 0 0 0 0 0 0 0 0 0 0 0 0 0 0 0 0 0 0 0 0 0 0 0 0 0 -0 0 0 0 0 0 0 0 0 0 0 0 0 0
0 0 0 0 0 0 0 0 0 0 0 0 0 0 0 0 0 0 0 -0 -0 0 -0 -0 0 0 0 0 0 0 0 0 0 0 0 0 0 0 0 0 0 0 0 0 0 0 0
0 0 0 0 0 0 0 0 0 0 0 0 0 0 0 -0 0 0 -0 -0 -0 -0 0 -0 0 0 0 0 -0 0 0 -0 -0 -0 0 -0 -0 -0 0 0 0 0 0 0 0 0 0
0 0 0 0 0 0 0 -0 -0 -0 0 0 0 -0 -0 -0 -0 -0 -0 -0 -0 -0 0 -0 0 -0 0 -0 -0 0 -0 -0 -0 -0 -0 -0 -0 -0 0 0 0 0 0 0 0 0 0
0 0 0 -0 -0 -0 -0 -0 -0 -0 0 0 -0 -0 -0 -0 -0 -0 -0 0 -0 -0 -0 0 -0 -0 -0 -0 -0 -0 -0 -0 0 -0 -0 -0 -0 0 0 0 0 0 0 0 0 0 0
-0 -0 -0 -0 -0 -0 -0 -0 -0 -0 -0 -0 0 -0 -0 -0 -0 -0 0 -0 0 -0 -0 -0 -0 -0 -0 -0 -0 -0 -0 -0 -0 -0 -0 -0 0 0 0 0 0 0 0 0 0 0 0
-0 -0 -0 -0 -0 -0 -0 -0 -0 -0 -0 -0 -0 -0 -0 -0 0 0 0 -0 0 0 -0 -0 -0 -0 -0 -0 -0 -0 -0 -0 -0 -0 0 0 0 0 0 0 0 0 0 0 0 0 0
-0 -0 -0 -0 -0 -0 -0 -0 -0 -0 -0 -0 -0 -0 0 -0 0 0 -0 -0 -0 0 -0 -0 -0 -0 -0 -0 -0 -0 -0 -0 -0 0 0 0 0 0 0 -0 0 0 0 0 0 0 0
-0 -0 -0 -0 -0 -0 -0 -0 -0 -0 -0 -0 -0 -0 0 0 0 0 -0 -0 0 0 -0 0 -0 0 0 -0 0 -0 -0 0 0 0 -0 0 0 0 0 0 0 0 0 0 0 0 0
-0 -0 -0 -0 -0 -0 -0 -0 -0 -0 -0 -0 -0 -0 -0 0 -0 -0 -0 -0 0 0 0 -0 0 0 0 0 0 0 0 0 0 0 0 0 0 0 0 0 0 0 0 0 0 0 0
-0 -0 -0 -0 -0 -0 -0 -0 -0 -0 -0 -0 -0 -0 -0 -0 -0 -0 0 -0 -0 -0 0 0 0 0 0 0 0 0 0 0 0 0 0 0 0 0 0 0 0 0 0 0 0 0 0
-0 -0 -0 -0 -0 -0 -0 -0 -0 -0 -0 -0 -0 -0 -0 0 -0 0 0 0 -0 0 0 0 0 0 0 0 0 0 0 0 0 0 0 0 0 0 0 0 0 0 0 0 0 0 0
-0 -0 -0 -0 -0 -0 -0 -0 -0 -0 -0 -0 -0 -0 -0 -0 -0 -0 -0 -0 0 0 0 0 0 0 0 0 0 0 0 0 0 0 0 0 0 0 0 0 0 0 0 0 0 0 0
0 0 0 -0 -0 -0 -0 -0 -0 -0 -0 -0 -0 -0 -0 -0 -0 0 -0 0 0 0 0 0 0 0 0 0 0 0 0 0 0 0 0 0 0 0 0 0 0 0 0 0 0 0 0
-0 -0 -0 -0 -0 -0 -0 -0 -0 -0 -0 -0 0 0 -0 -0 -0 0 0 0 0 0 0 0 0 0 0 0 0 0 0 0 0 0 0 0 0 0 0 0 0 0 0 0 0 0 0
0 0 -0 -0 -0 -0 -0 -0 -0 -0 -0 -0 0 0 0 0 0 0 0 0 0 0 0 0 0 0 0 0 0 0 0 0 0 0 0 0 0 0 0 0 0 0 0 0 0 0 0
0 0 0 0 0 -0 -0 -0 -0 -0 -0 0 0 0 0 0 0 0 0 0 0 0 0 0 0 0 0 0 0 0 0 0 0 0 0 0 0 0 0 0 0 0 0 0 0 0 0
0 0 0 0 0 0 -0 -0 -0 -0 -0 0 0 0 0 0 0 0 0 0 0 0 0 0 0 0 0 0 0 0 0 0 0 0 0 0 0 0 0 0 0 0 0 0 0 0 0
0 0 0 0 0 0 0 -0 -0 -0 -0 0 0 0 0 0 0 0 0 0 0 0 0 0 0 0 0 0 0 0 0 0 0 0 0 0 0 0 0 0 0 0 0 0 0 0 0
0 0 0 0 0 0 -0 -0 -0 -0 -0 -0 0 0 0 0 0 0 0 0 0 0 0 0 0 0 0 0 0 0 0 0 0 0 0 0 0 0 0 0 0 0 0 0 0 0 0
0 0 0 0 0 0 0 -0 -0 -0 -0 -0 0 0 0 0 0 0 0 0 0 0 0 0 0 0 0 0 0 0 0 0 0 0 0 0 0 0 0 0 0 0 0 0 0 0 0
0 0 0 0 0 0 0 0 -0 -0 -0 -0 0 0 0 0 0 0 0 0 0 0 0 0 0 0 0 0 0 0 0 0 0 0 0 0 0 0 0 0 0 0 0 0 0 0 0
0 0 0 0 0 0 -0 -0 0 0 -0 0 0 0 0 0 0 0 0 0 0 0 0 0 0 0 0 0 0 0 0 0 0 0 0 0 0 0 0 0 0 0 0 0 0 0 0
0 0 0 0 0 0 -0 -0 -0 0 0 0 0 0 0 0 0 0 0 0 0 0 0 0 0 0 0 0 0 0 0 0 0 0 0 0 0 0 0 0 0 0 0 0 0 0 0
0 0 0 0 0 0 0 -0 -0 0 0 0 0 0 0 0 0 0 0 0 0 0 0 0 0 0 0 0 0 0 0 0 0 0 0 0 0 0 0 0 0 0 0 0 0 0 0
0 0 0 0 0 -0 0 -0 -0 0 0 0 0 0 0 0 0 0 0 0 0 0 0 0 0 0 0 0 0 0 0 0 0 0 0 0 0 0 0 0 0 0 0 0 0 0 0
0 0 0 0 0 -0 -0 0 -0 0 0 0 0 0 0 0 0 0 0 0 0 0 0 0 0 0 0 0 0 0 0 0 0 0 0 0 0 0 0 0 0 0 0 0 0 0 0
0 0 0 -0 -0 -0 -0 -0 -0 -0 0 0 0 0 0 0 0 0 0 0 0 0 0 0 0 0 0 0 0 0 0 0 0 0 0 0 0 0 0 0 0 0 0 0 0 0 0
0 0 0 -0 -0 -0 -0 -0 -0 -0 0 0 0 0 0 0 0 0 0 0 0 0 0 0 0 0 0 0 0 0 0 0 0 0 0 0 0 0 0 0 0 0 0 0 0 0 0
Wind_Speed_500mb
49 49 50 51 52 52 48 44 41 38 34 31 28 27 26 24 23 21 21 22 24 23 22 21 24 25 23 14 6 6 9 12 18 26 30 26 25 14 12 11 16 14 16 18 36 25 28
47 47 48 49 50 51 48 44 39 35 31 27 23 22 21 21 20 19 20 22 23 22 22 25 26 24 19 6 9 7 11 14 11 13 19 24 18 19 9 10 13 9 16 16 16 20 18
45 47 47 48 49 49 46 42 39 35 31 27 23 19 18 18 17 17 19 20 21 21 24 27 25 24 12 3 11 7 10 10 8 8 9 10 12 9 8 7 6 1 10 16 9 10 6
45 46 47 47 47 46 46 43 39 34 30 27 22 19 17 16 16 16 18 20 20 23 27 24 19 20 7 3 7 10 11 11 10 7 9 5 9 8 3 3 4 5 3 6 6 6 4
44 45 46 46 45 45 44 43 40 35 30 26 21 18 15 13 13 13 16 17 24 22 19 13 16 9 1 3 4 6 14 10 11 8 15 9 8 3 2 2 4 7 1 5 8 22 7
44 44 45 46 46 44 43 42 39 36 31 26 21 18 16 14 11 10 12 23 16 13 2 12 8 5 4 3 5 10 17 20 9 17 17 2 4 6 6 3 12 4 4 2 5 9 17
46 46 46 47 47 45 43 39 37 35 33 28 23 20 17 14 11 7 14 13 13 5 18 10 13 14 18 10 7 16 14 16 13 6 9 10 14 20 16 5 9 6 4 4 4 7 10
50 49 49 48 48 47 45 40 35 33 30 27 23 19 16 13 7 5 11 9 18 15 13 8 11 13 7 2 6 7 15 10 8 12 13 12 22 6 6 7 10 3 5 10 7 12 5
57 57 54 52 50 48 47 42 36 30 26 23 22 21 19 15 7 5 6 11 28 19 5 10 7 12 7 11 10 10 12 10 10 9 8 7 9 12 5 15 8 1 1 5 4 6 10
62 62 61 60 57 53 49 47 41 33 26 21 19 20 20 18 6 9 1 15 29 12 3 15 6 10 8 3 9 22 6 6 7 22 18 14 9 6 13 12 7 7 3 17 19 8 10
62 63 64 64 63 61 56 51 48 41 30 23 19 17 15 12 14 8 5 17 22 3 5 11 8 5 22 10 4 14 22 13 12 13 9 9 12 11 12 8 6 6 25 17 15 14 6
62 64 65 66 66 65 63 57 51 47 39 26 23 19 16 14 13 13 9 18 2 4 4 3 9 13 6 19 10 9 13 20 8 17 22 10 6 10 9 4 6 21 5 4 6 6 10
64 66 67 68 69 69 67 64 58 51 43 29 23 21 19 18 11 13 14 6 3 5 0 3 5 5 10 11 8 14 10 11 3 5 4 3 10 4 8 3 2 19 5 5 6 8 2
64 67 70 71 72 73 73 70 64 57 44 31 18 19 19 16 18 12 7 3 7 4 3 3 2 5 6 5 6 6 4 5 10 3 5 3 7 4 7 5 5 7 9 5 3 4 1
66 69 70 72 74 74 76 74 69 62 47 33 14 12 15 13 11 10 7 3 4 7 7 9 5 4 4 2 3 3 4 4 2 3 2 2 5 3 4 8 4 4 5 5 5 2 6
68 70 73 74 75 76 77 78 73 63 48 36 17 9 10 10 6 10 4 5 6 7 9 5 6 3 7 2 6 5 7 4 6 3 2 6 4 1 2 6 12 5 10 5 3 6 6
68 70 71 74 76 77 77 78 78 68 53 38 14 3 2 7 10 4 5 8 9 10 10 8 9 8 6 7 6 7 8 3 6 6 6 7 2 5 5 2 2 6 5 6 2 4 5
68 70 71 74 75 76 76 76 78 76 59 39 11 2 7 9 3 2 5 8 8 9 6 6 7 7 11 12 9 9 15 6 15 14 5 4 2 5 1 5 4 1 4 3 6 8 3
67 69 71 74 77 77 77 75 73 75 66 48 21 5 4 5 5 5 4 4 8 8 7 9 9 6 5 10 7 7 9 5 17 17 14 13 4 6 7 7 6 8 7 6 7 1 14
65 67 68 72 76 78 78 77 72 68 62 43 15 6 8 8 10 4 4 5 7 6 8 6 7 9 7 8 5 11 12 9 15 13 12 18 8 11 13 5 6 10 15 15 9 7 8
63 64 65 67 72 78 79 78 75 67 56 41 21 6 8 8 5 9 5 4 4 6 2 8 3 14 14 10 8 9 9 7 5 17 11 8 13 12 19 13 14 16 20 23 25 19 16
61 63 64 65 68 74 78 79 75 70 58 33 14 12 11 6 13 11 3 1 2 6 6 8 11 18 18 14 17 13 14 11 11 17 12 6 12 9 15 17 20 19 24 23 30 23 27
60 61 63 64 65 68 73 75 76 72 61 22 23 13 6 7 5 5 1 5 4 11 13 21 19 13 18 32 31 16 18 10 6 16 21 12 12 9 14 6 9 16 32 32 22 20 22
60 60 60 62 63 64 69 72 73 72 62 43 31 15 3 6 5 5 8 12 19 10 11 12 12 14 8 14 16 8 7 5 12 17 17 14 11 9 6 9 16 8 4 11 30 27 30
62 62 61 60 61 62 63 68 71 70 63 46 33 8 4 7 6 11 10 6 17 14 5 9 0 5 14 14 5 3 4 5 10 5 18 14 13 9 8 17 14 25 13 16 18 29 28
63 63 62 61 60 62 62 64 68 69 64 45 25 9 5 8 5 7 8 8 6 9 7 2 9 5 13 3 5 10 13 14 9 8 10 14 9 15 8 11 14 8 7 14 11 22 19
64 64 63 63 61 61 62 63 66 68 65 40 18 11 8 8 8 3 6 7 3 2 6 5 11 2 3 5 8 8 12 6 13 20 12 7 7 23 23 18 15 14 12 22 14 18 10
65 65 64 64 64 62 63 64 66 68 64 37 19 9 11 8 19 7 8 12 12 7 6 4 9 6 2 7 6 6 8 6 6 9 10 16 13 10 9 13 15 20 18 15 14 4 14
63 65 66 66 65 64 63 64 67 68 61 30 15 9 7 13 12 8 10 15 22 26 21 8 8 3 7 3 4 3 7 6 8 18 2 11 14 11 17 10 3 32 13 26 18 14 12
Wind_Direction_500mb
354 353 351 349 347 345 341 336 332 328 321 310 302 294 290 289 289 290 295 302 308 314 315 321 328 324 333 304 236 142 95 115 140 163 174 179 170 162 188 176 157 217 251 216 241 246 241
354 353 352 351 350 349 347 343 337 333 329 321 313 304 297 290 288 289 292 300 309 312 314 319 322 319 323 268 160 157 128 117 129 145 186 192 192 186 147 179 206 219 236 266 267 253 229
353 354 354 354 354 354 352 349 344 339 337 331 324 317 307 298 297 293 297 302 304 306 314 315 315 322 307 82 155 177 163 162 141 124 115 172 171 171 158 162 227 125 286 295 291 273 243
353 355 354 355 356 357 356 354 350 346 342 338 333 326 316 310 302 302 301 305 307 311 311 304 303 320 262 127 181 202 218 218 221 218 177 183 200 234 228 122 62 171 159 337 16 296 86
353 354 356 356 357 357 357 356 353 351 347 342 339 334 321 311 307 307 307 315 312 310 312 296 309 310 186 36 64 128 176 190 146 134 168 125 145 166 129 213 156 38 112 328 312 45 33
355 355 356 357 357 356 355 356 356 355 351 348 344 337 327 320 312 307 319 325 320 310 283 308 290 290 148 78 51 127 164 178 108 113 108 143 77 86 64 31 68 51 63 274 357 25 40
360 356 357 358 358 356 354 354 355 357 357 353 349 343 336 330 321 324 357 350 358 2 309 247 278 279 283 339 135 149 182 172 145 127 109 30 98 64 40 94 122 136 116 44 72 136 76
8 4 1 358 357 357 355 352 349 351 355 358 357 352 347 338 331 20 34 63 24 316 313 304 277 291 304 321 104 155 175 157 150 127 129 107 76 29 72 109 125 96 3 47 97 111 109
20 15 10 4 359 357 356 353 347 341 342 348 356 2 3 357 348 45 55 23 354 341 274 314 343 7 17 93 58 7 178 152 96 131 175 112 109 40 137 61 46 207 80 313 296 82 125
22 19 16 12 8 2 356 354 350 338 327 328 329 335 344 351 341 339 44 347 343 328 348 6 20 28 10 126 74 40 112 136 94 118 109 84 26 91 74 79 348 280 85 308 281 235 252
19 18 16 13 11 8 2 355 350 344 326 307 310 318 329 327 306 314 287 327 336 327 142 360 9 47 46 84 319 19 39 66 125 150 204 100 80 58 54 11 330 302 322 299 293 264 262
17 16 14 13 10 7 4 0 352 345 336 305 288 292 306 310 292 277 272 318 299 236 141 41 16 357 55 28 26 346 50 83 111 75 75 80 111 48 12 335 358 317 302 82 131 181 220
16 15 14 12 10 7 4 1 357 348 341 322 280 277 282 294 293 294 291 296 213 216 357 68 49 35 78 17 46 27 39 43 43 177 142 111 59 106 21 7 335 1 334 167 158 176 156
13 12 12 11 9 6 3 1 359 354 346 332 288 262 266 284 291 273 295 145 225 141 174 140 129 108 101 8 68 42 100 113 61 81 117 44 184 48 18 37 330 16 357 13 225 200 204
11 11 10 9 9 7 4 1 360 357 350 342 304 252 263 269 270 242 169 196 242 191 155 162 124 132 122 141 110 100 63 123 70 31 119 169 175 139 71 41 301 75 67 1 105 79 241
8 8 7 7 7 7 5 1 0 359 354 349 323 262 245 255 211 162 117 234 222 203 139 152 192 179 179 202 192 187 188 163 144 81 306 154 238 133 110 189 66 42 123 198 173 219 241
7 6 7 6 6 6 7 4 1 360 358 352 341 245 215 204 175 168 214 226 222 215 155 162 175 155 177 185 197 189 181 163 213 124 96 133 274 133 217 198 112 151 159 75 65 289 260
6 6 6 6 6 6 7 7 3 1 360 3 7 326 356 179 149 23 198 199 211 170 174 120 125 146 185 171 186 200 202 240 184 162 173 93 157 248 26 90 329 113 139 196 251 180 208
5 5 5 6 6 6 7 8 8 3 2 359 344 336 351 185 223 211 258 240 194 163 181 162 153 163 152 169 188 207 202 191 174 174 177 175 191 278 167 160 184 230 171 131 109 247 220
3 3 3 3 4 5 7 8 9 9 6 2 359 353 23 60 63 6 349 216 203 204 167 147 134 130 145 180 195 195 211 180 189 201 161 149 170 228 265 319 138 198 195 188 210 216 224
360 0 1 1 1 3 4 7 9 10 13 15 17 44 12 339 12 345 298 306 236 215 150 165 140 202 180 191 188 212 205 192 179 167 144 204 233 213 247 232 208 234 226 203 210 229 230
357 358 359 360 0 1 1 4 8 10 14 23 23 359 337 274 304 304 331 117 271 7 212 210 221 206 188 199 194 194 185 198 203 185 189 192 236 205 257 236 225 233 233 228 226 239 250
354 356 357 358 359 359 359 1 4 9 11 16 356 328 319 299 334 302 353 6 1 345 262 241 230 178 199 227 211 218 196 190 191 188 195 188 192 186 253 219 204 252 233 221 211 221 231
349 351 354 356 357 357 356 357 359 3 5 1 348 329 294 284 290 291 313 308 293 299 259 297 215 199 221 204 144 117 131 208 211 219 194 168 191 199 260 174 233 253 169 236 225 235 218
345 347 348 351 354 354 354 353 354 356 358 354 345 312 248 276 271 293 331 269 308 320 241 271 184 264 171 137 118 211 224 239 227 208 212 211 181 204 227 219 284 267 205 190 189 257 233
341 343 344 347 350 351 351 349 349 350 353 350 351 327 240 290 226 302 313 319 334 338 325 46 22 144 174 100 151 218 253 263 229 171 45 178 249 220 187 232 244 226 224 183 152 266 220
336 338 341 343 346 348 348 346 345 346 348 347 334 312 250 261 290 352 306 313 293 307 273 319 350 282 184 176 202 223 249 216 242 249 242 163 187 219 230 245 258 244 157 151 233 281 159
334 335 337 340 343 345 345 343 341 342 343 341 324 296 225 251 289 270 304 278 276 236 254 344 314 211 136 195 210 215 230 217 254 262 238 231 199 200 202 226 262 158 136 223 244 235 203
335 334 335 338 341 343 343 341 337 338 337 333 320 289 243 242 274 332 21 344 276 265 258 247 258 255 223 150 214 157 214 200 243 272 189 241 229 244 212 220 133 188 209 231 274 269 255
Wind_Speed_850mb
49 49 50 51 52 52 48 44 41 38 34 31 28 27 26 24 23 21 21 22 24 23 22 21 24 25 23 14 6 6 9 12 18 26 30 26 25 14 12 11 16 14 16 18 36 25 28
47 47 48 49 50 51 48 44 39 35 31 27 23 22 21 21 20 19 20 22 23 22 22 25 26 24 19 6 9 7 11 14 11 13 19 24 18 19 9 10 13 9 16 16 16 20 18
45 47 47 48 49 49 46 42 39 35 31 27 23 19 18 18 17 17 19 20 21 21 24 27 25 24 12 3 11 7 10 10 8 8 9 10 12 9 8 7 6 1 10 16 9 10 6
45 46 47 47 47 46 46 43 39 34 30 27 22 19 17 16 16 16 18 20 20 23 27 24 19 20 7 3 7 10 11 11 10 7 9 5 9 8 3 3 4 5 3 6 6 6 4
44 45 46 46 45 45 44 43 40 35 30 26 21 18 15 13 13 13 16 17 24 22 19 13 16 9 1 3 4 6 14 10 11 8 15 9 8 3 2 2 4 7 1 5 8 22 7
44 44 45 46 46 44 43 42 39 36 31 26 21 18 16 14 11 10 12 23 16 13 2 12 8 5 4 3 5 10 17 20 9 17 17 2 4 6 6 3 12 4 4 2 5 9 17
46 46 46 47 47 45 43 39 37 35 33 28 23 20 17 14 11 7 14 13 13 5 18 10 13 14 18 10 7 16 14 16 13 6 9 10 14 20 16 5 9 6 4 4 4 7 10
50 49 49 48 48 47 45 40 35 33 30 27 23 19 16 13 7 5 11 9 18 15 13 8 11 13 7 2 6 7 15 10 8 12 13 12 22 6 6 7 10 3 5 10 7 12 5
57 57 54 52 50 48 47 42 36 30 26 23 22 21 19 15 7 5 6 11 28 19 5 10 7 12 7 11 10 10 12 10 10 9 8 7 9 12 5 15 8 1 1 5 4 6 10
62 62 61 60 57 53 49 47 41 33 26 21 19 20 20 18 6 9 1 15 29 12 3 15 6 10 8 3 9 22 6 6 7 22 18 14 9 6 13 12 7 7 3 17 19 8 10
62 63 64 64 63 61 56 51 48 41 30 23 19 17 15 12 14 8 5 17 22 3 5 11 8 5 22 10 4 14 22 13 12 13 9 9 12 11 12 8 6 6 25 17 15 14 6
62 64 65 66 66 65 63 57 51 47 39 26 23 19 16 14 13 13 9 18 2 4 4 3 9 13 6 19 10 9 13 20 8 17 22 10 6 10 9 4 6 21 5 4 6 6 10
64 66 67 68 69 69 67 64 58 51 43 29 23 21 19 18 11 13 14 6 3 5 0 3 5 5 10 11 8 14 10 11 3 5 4 3 10 4 8 3 2 19 5 5 6 8 2
64 67 70 71 72 73 73 70 64 57 44 31 18 19 19 16 18 12 7 3 7 4 3 3 2 5 6 5 6 6 4 5 10 3 5 3 7 4 7 5 5 7 9 5 3 4 1
66 69 70 72 74 74 76 74 69 62 47 33 14 12 15 13 11 10 7 3 4 7 7 9 5 4 4 2 3 3 4 4 2 3 2 2 5 3 4 8 4 4 5 5 5 2 6
68 70 73 74 75 76 77 78 73 63 48 36 17 9 10 10 6 10 4 5 6 7 9 5 6 3 7 2 6 5 7 4 6 3 2 6 4 1 2 6 12 5 10 5 3 6 6
68 70 71 74 76 77 77 78 78 68 53 38 14 3 2 7 10 4 5 8 9 10 10 8 9 8 6 7 6 7 8 3 6 6 6 7 2 5 5 2 2 6 5 6 2 4 5
68 70 71 74 75 76 76 76 78 76 59 39 11 2 7 9 3 2 5 8 8 9 6 6 7 7 11 12 9 9 15 6 15 14 5 4 2 5 1 5 4 1 4 3 6 8 3
67 69 71 74 77 77 77 75 73 75 66 48 21 5 4 5 5 5 4 4 8 8 7 9 9 6 5 10 7 7 9 5 17 17 14 13 4 6 7 7 6 8 7 6 7 1 14
65 67 68 72 76 78 78 77 72 68 62 43 15 6 8 8 10 4 4 5 7 6 8 6 7 9 7 8 5 11 12 9 15 13 12 18 8 11 13 5 6 10 15 15 9 7 8
63 64 65 67 72 78 79 78 75 67 56 41 21 6 8 8 5 9 5 4 4 6 2 8 3 14 14 10 8 9 9 7 5 17 11 8 13 12 19 13 14 16 20 23 25 19 16
61 63 64 65 68 74 78 79 75 70 58 33 14 12 11 6 13 11 3 1 2 6 6 8 11 18 18 14 17 13 14 11 11 17 12 6 12 9 15 17 20 19 24 23 30 23 27
60 61 63 64 65 68 73 75 76 72 61 22 23 13 6 7 5 5 1 5 4 11 13 21 19 13 18 32 31 16 18 10 6 16 21 12 12 9 14 6 9 16 32 32 22 20 22
60 60 60 62 63 64 69 72 73 72 62 43 31 15 3 6 5 5 8 12 19 10 11 12 12 14 8 14 16 8 7 5 12 17 17 14 11 9 6 9 16 8 4 11 30 27 30
62 62 61 60 61 62 63 68 71 70 63 46 33 8 4 7 6 11 10 6 17 14 5 9 0 5 14 14 5 3 4 5 10 5 18 14 13 9 8 17 14 25 13 16 18 29 28
63 63 62 61 60 62 62 64 68 69 64 45 25 9 5 8 5 7 8 8 6 9 7 2 9 5 13 3 5 10 13 14 9 8 10 14 9 15 8 11 14 8 7 14 11 22 19
64 64 63 63 61 61 62 63 66 68 65 40 18 11 8 8 8 3 6 7 3 2 6 5 11 2 3 5 8 8 12 6 13 20 12 7 7 23 23 18 15 14 12 22 14 18 10
65 65 64 64 64 62 63 64 66 68 64 37 19 9 11 8 19 7 8 12 12 7 6 4 9 6 2 7 6 6 8 6 6 9 10 16 13 10 9 13 15 20 18 15 14 4 14
63 65 66 66 65 64 63 64 67 68 61 30 15 9 7 13 12 8 10 15 22 26 21 8 8 3 7 3 4 3 7 6 8 18 2 11 14 11 17 10 3 32 13 26 18 14 12
Wind_Direction_850mb
354 353 351 349 347 345 341 336 332 328 321 310 302 294 290 289 289 290 295 302 308 314 315 321 328 324 333 304 236 142 95 115 140 163 174 179 170 162 188 176 157 217 251 216 241 246 241
354 353 352 351 350 349 347 343 337 333 329 321 313 304 297 290 288 289 292 300 309 312 314 319 322 319 323 268 160 157 128 117 129 145 186 192 192 186 147 179 206 219 236 266 267 253 229
353 354 354 354 354 354 352 349 344 339 337 331 324 317 307 298 297 293 297 302 304 306 314 315 315 322 307 82 155 177 163 162 141 124 115 172 171 171 158 162 227 125 286 295 291 273 243
353 355 354 355 356 357 356 354 350 346 342 338 333 326 316 310 302 302 301 305 307 311 311 304 303 320 262 127 181 202 218 218 221 218 177 183 200 234 228 122 62 171 159 337 16 296 86
353 354 356 356 357 357 357 356 353 351 347 342 339 334 321 311 307 307 307 315 312 310 312 296 309 310 186 36 64 128 176 190 146 134 168 125 145 166 129 213 156 38 112 328 312 45 33
355 355 356 357 357 356 355 356 356 355 351 348 344 337 327 320 312 307 319 325 320 310 283 308 290 290 148 78 51 127 164 178 108 113 108 143 77 86 64 31 68 51 63 274 357 25 40
360 356 357 358 358 356 354 354 355 357 357 353 349 343 336 330 321 324 357 350 358 2 309 247 278 279 283 339 135 149 182 172 145 127 109 30 98 64 40 94 122 136 116 44 72 136 76
8 4 1 358 357 357 355 352 349 351 355 358 357 352 347 338 331 20 34 63 24 316 313 304 277 291 304 321 104 155 175 157 150 127 129 107 76 29 72 109 125 96 3 47 97 111 109
20 15 10 4 359 357 356 353 347 341 342 348 356 2 3 357 348 45 55 23 354 341 274 314 343 7 17 93 58 7 178 152 96 131 175 112 109 40 137 61 46 207 80 313 296 82 125
22 19 16 12 8 2 356 354 350 338 327 328 329 335 344 351 341 339 44 347 343 328 348 6 20 28 10 126 74 40 112 136 94 118 109 84 26 91 74 79 348 280 85 308 281 235 252
19 18 16 13 11 8 2 355 350 344 326 307 310 318 329 327 306 314 287 327 336 327 142 360 9 47 46 84 319 19 39 66 125 150 204 100 80 58 54 11 330 302 322 299 293 264 262
17 16 14 13 10 7 4 0 352 345 336 305 288 292 306 310 292 277 272 318 299 236 141 41 16 357 55 28 26 346 50 83 111 75 75 80 111 48 12 335 358 317 302 82 131 181 220
16 15 14 12 10 7 4 1 357 348 341 322 280 277 282 294 293 294 291 296 213 216 357 68 49 35 78 17 46 27 39 43 43 177 142 111 59 106 21 7 335 1 334 167 158 176 156
13 12 12 11 9 6 3 1 359 354 346 332 288 262 266 284 291 273 295 145 225 141 174 140 129 108 101 8 68 42 100 113 61 81 117 44 184 48 18 37 330 16 357 13 225 200 204
11 11 10 9 9 7 4 1 360 357 350 342 304 252 263 269 270 242 169 196 242 191 155 162 124 132 122 141 110 100 63 123 70 31 119 169 175 139 71 41 301 75 67 1 105 79 241
8 8 7 7 7 7 5 1 0 359 354 349 323 262 245 255 211 162 117 234 222 203 139 152 192 179 179 202 192 187 188 163 144 81 306 154 238 133 110 189 66 42 123 198 173 219 241
7 6 7 6 6 6 7 4 1 360 358 352 341 245 215 204 175 168 214 226 222 215 155 162 175 155 177 185 197 189 181 163 213 124 96 133 274 133 217 198 112 151 159 75 65 289 260
6 6 6 6 6 6 7 7 3 1 360 3 7 326 356 179 149 23 198 199 211 170 174 120 125 146 185 171 186 200 202 240 184 162 173 93 157 248 26 90 329 113 139 196 251 180 208
5 5 5 6 6 6 7 8 8 3 2 359 344 336 351 185 223 211 258 240 194 163 181 162 153 163 152 169 188 207 202 191 174 174 177 175 191 278 167 160 184 230 171 131 109 247 220
3 3 3 3 4 5 7 8 9 9 6 2 359 353 23 60 63 6 349 216 203 204 167 147 134 130 145 180 195 195 211 180 189 201 161 149 170 228 265 319 138 198 195 188 210 216 224
360 0 1 1 1 3 4 7 9 10 13 15 17 44 12 339 12 345 298 306 236 215 150 165 140 202 180 191 188 212 205 192 179 167 144 204 233 213 247 232 208 234 226 203 210 229 230
357 358 359 360 0 1 1 4 8 10 14 23 23 359 337 274 304 304 331 117 271 7 212 210 221 206 188 199 194 194 185 198 203 185 189 192 236 205 257 236 225 233 233 228 226 239 250
354 356 357 358 359 359 359 1 4 9 11 16 356 328 319 299 334 302 353 6 1 345 262 241 230 178 199 227 211 218 196 190 191 188 195 188 192 186 253 219 204 252 233 221 211 221 231
349 351 354 356 357 357 356 357 359 3 5 1 348 329 294 284 290 291 313 308 293 299 259 297 215 199 221 204 144 117 131 208 211 219 194 168 191 199 260 174 233 253 169 236 225 235 218
345 347 348 351 354 354 354 353 354 356 358 354 345 312 248 276 271 293 331 269 308 320 241 271 184 264 171 137 118 211 224 239 227 208 212 211 181 204 227 219 284 267 205 190 189 257 233
341 343 344 347 350 351 351 349 349 350 353 350 351 327 240 290 226 302 313 319 334 338 325 46 22 144 174 100 151 218 253 263 229 171 45 178 249 220 187 232 244 226 224 183 152 266 220
336 338 341 343 346 348 348 346 345 346 348 347 334 312 250 261 290 352 306 313 293 307 273 319 350 282 184 176 202 223 249 216 242 249 242 163 187 219 230 245 258 244 157 151 233 281 159
334 335 337 340 343 345 345 343 341 342 343 341 324 296 225 251 289 270 304 278 276 236 254 344 314 211 136 195 210 215 230 217 254 262 238 231 199 200 202 226 262 158 136 223 244 235 203
335 334 335 338 341 343 343 341 337 338 337 333 320 289 243 242 274 332 21 344 276 265 258 247 258 255 223 150 214 157 214 200 243 272 189 241 229 244 212 220 133 188 209 231 274 269 255